Regional Weather Roundup
Issued by NWS State College, PA

Home | Current Version | Previous Version | Text Only | Print | Product List | Glossary Off
Versions: 1 2 3 4 5 6 7 8 9 10 11 12 13 14 15 16 17 18 19 20 21 22 23 24 25 26 27 28 29 30 31 32 33 34 35 36 37 38 39 40 41 42 43 44 45 46 47 48 49 50

000
ASUS41 KCTP 031610
RWRCTP

REGIONAL WEATHER ROUNDUP
NATIONAL WEATHER SERVICE STATE COLLEGE PA
1200 PM EDT TUE MAY 03 2016

Note: "fair" indicates few or no clouds below 12,000 feet with no
significant weather and/or obstructions to visibility.

* = STATION THAT DOES NOT REPORT PRECIPITATION /E.G. RAIN...SNOW...ETC/
    THUNDER OR FOG.

PAZ002>004-007>009-013>016-020>023-029>032-031700-
WESTERN PENNSYLVANIA

CITY           SKY/WX    TMP DP  RH WIND       PRES   REMARKS
ERIE           CLOUDY    45  41  86 NW6       29.89F FOG
MEADVILLE      CLOUDY    44  41  89 VRB5      29.88S
FRANKLIN*      CLOUDY    48  41  76 CALM      29.88F
NEW CASTLE     FAIR      53  42  66 VRB7      29.88F
BEAVER COUNTY  MOSUNNY   54  43  66 CALM      29.88S
BUTLER*        CLOUDY    54  45  71 W6        29.90S
PITTSBURGH INT MOSUNNY   55  43  63 VRB5      29.86F
PITTSBURGH     CLOUDY    55  45  68 VRB3      29.85F
INDIANA*       PTSUNNY   57  48  72 W7        29.88F
LATROBE        CLOUDY    55  50  82 W7        29.87S
WASHINGTON CO* PTSUNNY   55  46  71 N6        29.87F
$$

PAZ004>006-010>012-017>019-024>028-033>037-041-042-045-046-049>053-031700-
CENTRAL PENNSYLVANIA

CITY           SKY/WX    TMP DP  RH WIND       PRES   REMARKS
BRADFORD       CLOUDY    46  43  89 CALM      29.85S FOG
DUBOIS         CLOUDY    55  44  66 W6        29.82F
CLEARFIELD     CLOUDY    56  46  69 SW6       29.83F
JOHNSTOWN      CLOUDY    55  44  66 W6        29.83F
ALTOONA        MOSUNNY   59  53  80 VRB3      29.83F
STATE COLLEGE  CLOUDY    52  48  87 CALM      29.85S
WILLIAMSPORT   CLOUDY    51  46  83 W5        29.85S
SELINSGROVE    CLOUDY    53  49  86 NW6       29.85F
FT INDIANTOWN  CLOUDY    58  55  92 VRB3      29.83S
CAPITAL CITY   CLOUDY    59  52  77 E7        29.83S
HARRISBURG     CLOUDY    58  53  84 E3        29.82F
YORK           CLOUDY    57  54  89 N7        29.82S
$$

PAZ038>040-043-044-047-048-054-055-060>062-067>071-031700-
EASTERN PENNSYLVANIA

CITY           SKY/WX    TMP DP  RH WIND       PRES   REMARKS
SCRANTON       CLOUDY    51  47  86 N5        29.85S
MOUNT POCONO   CLOUDY    48  46  93 E7        29.84S FOG
ALLENTOWN      CLOUDY    57  52  83 E8        29.84F
QUAKERTOWN*    CLOUDY    54  54 100 E5        29.85S
READING        CLOUDY    56  52  86 NE5       29.82F FOG
LANCASTER      CLOUDY    56  54  93 NE9       29.83S
COATESVILLE    CLOUDY    54  54 100 NE5       29.84S FOG
POTTSTOWN      LGT RAIN  54  54 100 NE8       29.85R FOG
BLUE BELL      CLOUDY    54  52  94 E7        29.83S
DOYLESTOWN       N/A     52  52 100 VRB3      29.83S
WILLOW GROVE   NOT AVBL
NORTH PHILA    LGT RAIN  56  54  93 NE12      29.84S FOG
PHILADELPHIA   CLOUDY    57  53  86 NE9       29.83S
$$



USA.gov is the U.S. government's official web portal to all federal, state and local government web resources and services.